RH
72 71 62 51 43 38 34 33 33 33 34 34 34 36 37 36 36 38 41 45 50 53 54 54 54 51 47 44 40 35 32 31 33 34 36 41 47 47 48 48 46 44 44 43 44 46 45 45 49 52 50 47 46 45 44 44 43 42 41 39 39 39 39 38 37 35 34 34 34 33 34 33 33 33 33 33 33 34 35 35 33 30 27 26 25
81 79 75 67 57 48 40 36 34 34 34 34 33 33 35 35 36 38 39 43 48 52 53 53 54 54 50 45 40 36 32 30 31 32 32 34 39 43 45 45 44 44 43 41 41 42 44 45 45 47 48 46 43 42 43 43 42 42 43 43 41 40 40 40 40 39 37 37 36 35 34 33 31 29 29 28 27 28 29 28 26 26 26 25 23
86 82 79 71 62 57 51 44 38 35 33 33 33 33 34 37 38 38 38 40 43 47 50 50 50 51 49 45 41 36 33 30 30 31 30 31 32 35 39 42 43 42 41 40 40 39 42 45 45 43 43 41 38 37 38 40 40 41 42 42 40 39 39 39 39 39 38 37 37 36 34 32 29 28 26 26 26 25 23 23 24 26 26 26 25
86 81 77 71 64 63 63 60 58 52 41 34 33 33 35 38 40 40 38 39 41 42 45 47 47 46 45 42 40 38 34 31 30 30 30 30 30 30 32 34 37 39 39 38 38 37 39 41 42 40 37 35 33 32 34 37 38 39 40 40 39 38 38 38 37 36 36 36 36 35 33 30 27 27 26 25 25 24 22 23 25 27 27 27 28
85 81 79 75 70 69 70 72 75 71 58 47 40 35 34 36 39 40 40 39 40 41 42 44 45 45 43 41 39 38 37 35 32 31 31 31 30 29 29 29 31 32 33 33 34 34 35 35 36 35 34 33 31 30 31 33 35 36 36 36 37 37 37 37 36 36 36 35 34 32 29 27 26 25 24 24 23 22 22 24 27 29 29 29 30
85 81 80 80 76 72 72 74 77 77 73 67 58 49 43 39 36 36 37 37 38 39 40 41 43 43 42 41 40 39 39 38 35 34 34 34 33 30 29 28 28 28 29 30 30 30 30 31 31 31 30 30 29 29 29 30 32 32 32 32 33 34 35 35 35 35 34 34 32 29 27 26 24 23 23 23 22 22 22 24 26 28 28 29 30
84 82 81 82 81 77 74 72 75 78 78 75 68 62 57 51 44 39 36 35 35 36 37 38 40 41 42 41 41 40 39 38 37 36 36 36 36 34 31 29 28 27 27 28 28 28 28 28 29 28 28 29 29 29 29 29 30 30 30 30 30 31 31 32 32 32 32 31 30 28 25 24 23 23 23 23 23 23 23 24 25 24 25 27 27
82 83 83 81 81 79 76 73 75 81 82 76 69 66 64 61 58 54 47 41 38 36 35 35 36 38 39 40 40 40 39 38 37 37 37 36 36 35 34 31 30 28 28 27 27 27 27 27 27 27 27 28 28 29 28 28 29 29 30 31 31 30 29 29 29 29 29 28 26 25 24 23 22 22 22 22 22 23 23 23 22 21 22 22 22
80 82 84 82 82 81 80 78 78 81 81 74 68 67 67 67 67 66 62 55 49 42 38 36 36 35 36 37 38 38 38 37 37 35 35 35 35 34 33 32 30 29 28 28 28 28 28 27 27 27 26 26 26 26 25 26 28 29 30 30 30 30 29 29 28 27 26 26 25 25 25 23 22 21 22 22 22 22 22 21 20 20 20 20 19
76 79 82 84 86 85 83 81 80 79 76 72 71 71 70 69 67 68 68 65 60 52 44 39 37 36 37 36 36 36 37 36 36 35 34 33 33 33 32 30 29 28 28 28 28 28 28 27 26 26 27 26 25 24 23 24 26 28 28 28 29 29 28 28 27 26 26 26 26 26 26 25 23 22 22 21 22 22 21 20 19 18 19 19 18
73 77 80 81 84 86 85 82 80 78 75 73 74 72 68 68 68 68 70 71 68 63 55 47 42 39 37 37 37 36 36 36 36 35 34 32 31 31 30 29 27 26 25 25 26 27 27 28 27 26 25 24 24 24 24 24 25 26 27 29 29 29 28 27 26 25 25 26 26 26 27 26 24 23 22 21 21 22 21 19 18 18 18 19 17
73 74 77 78 82 84 85 84 83 81 78 77 77 74 69 68 69 69 71 73 73 69 63 56 51 47 42 39 38 37 36 37 37 36 35 34 32 31 30 29 28 26 24 23 23 23 24 25 26 25 24 23 22 23 23 23 24 25 27 28 28 27 27 26 26 26 26 26 26 27 26 26 25 23 21 21 21 20 19 18 18 19 20 20 18
75 74 74 75 76 77 79 82 84 85 84 81 80 80 76 72 71 72 72 74 74 72 67 59 55 55 52 46 42 39 38 38 38 38 38 37 36 35 32 30 29 27 26 25 23 23 22 22 22 22 22 22 22 22 22 23 24 25 26 26 26 26 26 26 26 27 27 27 27 27 26 25 25 21 19 20 21 20 19 19 20 22 23 22 21
71 73 75 77 76 74 74 76 80 83 85 86 85 84 82 80 79 77 76 76 75 74 71 62 55 55 57 54 48 44 42 41 40 40 39 39 38 38 36 35 33 31 29 28 26 25 23 23 22 22 21 21 21 21 21 21 22 23 23 23 23 24 24 25 25 26 26 26 27 26 24 22 22 20 18 19 20 20 19 19 21 23 22 21 22
66 66 70 75 77 76 76 78 79 79 80 83 85 85 85 84 83 82 80 78 76 75 74 68 59 56 58 58 53 48 45 44 44 43 43 43 43 42 41 39 37 35 33 31 30 28 27 25 24 23 23 22 22 22 21 20 20 20 21 21 22 22 22 22 22 22 23 22 23 22 21 20 21 20 19 19 20 20 20 21 22 23 22 21 21
58 58 61 66 70 72 75 76 79 79 76 76 78 80 82 83 82 80 79 78 77 76 76 75 70 63 60 59 57 53 49 47 47 48 50 52 52 51 50 48 44 41 37 35 33 32 30 29 27 25 24 23 23 23 24 24 22 21 21 21 21 22 21 21 21 22 22 22 22 22 22 21 21 20 20 20 21 21 21 21 22 22 23 23 22
49 48 52 56 59 64 66 67 70 73 73 71 70 72 76 78 79 77 76 77 79 79 79 79 77 71 66 63 61 58 55 51 50 51 53 56 57 56 55 53 51 47 42 38 36 33 31 31 30 29 27 25 24 24 25 26 25 25 24 23 22 22 22 23 23 23 22 22 23 23 23 22 21 21 21 21 22 23 23 22 22 23 24 24 23
45 44 44 46 47 50 52 53 55 58 61 63 64 66 69 72 75 74 73 74 77 78 79 81 80 76 71 68 64 61 59 57 55 53 52 52 53 52 51 50 48 47 45 43 40 36 34 33 32 32 31 29 28 27 27 27 26 26 26 25 24 24 24 25 26 25 24 24 24 23 23 22 22 22 23 24 24 25 24 24 24 25 26 25 24
44 42 41 40 39 39 40 42 45 48 50 52 56 60 62 64 68 70 71 73 74 74 75 80 83 79 75 74 71 67 64 63 62 59 56 55 53 52 52 50 48 47 47 47 45 43 39 36 34 34 33 32 32 32 31 30 28 28 28 27 26 25 25 27 28 27 26 25 25 24 24 24 25 24 25 25 26 26 27 26 27 27 26 24 24
41 41 40 38 37 38 38 40 41 42 43 45 47 50 53 56 59 62 64 66 67 69 71 77 82 82 79 78 77 75 72 69 68 66 64 62 61 60 59 55 52 49 48 47 47 46 45 42 39 38 36 35 34 33 33 33 32 32 31 30 28 27 28 29 28 28 27 26 26 26 25 25 25 25 25 26 26 27 28 28 29 29 28 26 24
39 39 39 39 39 41 41 42 41 39 38 39 40 41 44 46 49 50 51 52 55 60 66 70 73 76 78 79 79 79 78 75 74 72 70 70 68 67 65 62 59 56 54 51 48 47 48 48 47 47 46 42 38 35 33 33 34 34 33 32 32 32 31 31 30 29 29 28 28 27 26 25 25 25 26 25 25 26 27 28 29 29 29 29 27
36 36 36 37 38 40 41 41 41 39 37 36 35 35 35 37 39 41 42 43 47 51 56 59 61 62 66 70 72 74 74 73 73 73 73 73 72 70 68 67 66 66 63 59 54 51 51 52 53 53 52 47 43 39 36 34 33 33 34 34 35 35 35 33 32 31 30 30 30 28 27 26 26 25 25 25 25 26 27 28 28 29 29 30 29
29 29 31 32 33 34 35 36 37 37 37 36 35 34 34 34 35 36 38 42 46 49 52 54 55 55 55 58 63 68 72 74 76 77 77 77 75 74 73 72 72 71 69 66 62 59 57 56 56 56 56 55 52 49 45 40 36 35 35 35 36 37 36 34 33 33 33 32 32 30 29 28 28 27 27 27 27 28 28 28 29 29 30 30 29
25 25 26 28 29 30 32 33 34 34 34 34 33 33 34 35 36 38 41 44 48 51 53 55 57 57 57 58 61 67 72 76 78 80 82 83 82 80 78 76 75 74 72 71 69 67 65 64 61 60 59 59 59 57 54 50 45 42 40 39 38 38 37 36 35 35 35 34 33 33 31 30 30 29 29 30 30 30 30 30 30 29 29 29 29
26 25 24 24 25 26 27 29 30 30 29 29 29 29 31 33 35 38 41 42 44 46 49 53 57 60 61 61 62 64 68 72 75 75 75 76 78 77 74 72 71 69 70 72 73 72 70 69 68 66 63 61 60 59 58 56 55 52 50 47 46 44 42 40 39 38 37 35 34 34 33 32 32 33 33 33 33 32 31 31 30 29 29 29 29
28 26 25 24 23 23 22 22 23 23 24 25 27 28 30 31 31 32 35 36 38 38 40 45 50 53 57 59 61 62 64 66 69 68 65 64 68 70 67 65 64 63 64 67 71 74 74 72 70 69 67 66 64 62 61 59 58 57 57 56 55 53 49 45 42 40 38 36 35 35 34 34 34 35 35 35 34 32 32 31 30 30 29 30 30
32 28 26 25 23 23 22 20 20 19 19 20 23 26 28 30 30 30 31 32 33 32 33 36 40 43 45 48 51 54 57 59 62 61 58 56 58 62 63 60 59 59 59 61 64 68 72 74 73 71 69 68 69 68 67 65 63 61 61 61 60 57 53 49 46 43 39 37 38 37 36 36 36 36 36 36 35 33 32 33 32 30 30 33 32
37 33 30 27 25 23 22 21 19 18 18 18 18 20 22 24 26 28 30 31 31 30 30 31 33 35 36 37 39 42 45 48 51 52 51 50 50 52 52 52 52 54 55 57 58 60 63 67 69 70 70 70 70 70 70 69 68 67 66 64 61 59 57 55 53 49 45 43 41 39 38 37 37 37 37 37 35 32 31 33 32 32 32 34 34
38 36 33 31 29 26 24 23 21 20 19 18 17 17 17 19 20 21 23 26 29 29 29 28 28 29 30 30 32 33 35 38 40 43 45 46 44 41 40 41 43 45 48 53 56 57 58 59 61 64 66 68 68 68 69 69 70 71 71 69 66 63 61 60 58 55 52 49 47 44 41 40 39 37 36 35 33 30 30 32 33 34 35 37 36
35 34 32 30 29 27 25 24 23 22 21 20 18 17 17 17 18 18 18 19 21 23 24 24 25 26 26 26 26 27 28 29 30 31 33 34 33 31 32 34 35 37 40 44 49 53 56 57 58 60 61 62 62 61 60 60 62 64 67 69 68 66 65 65 64 62 60 58 55 50 46 44 41 37 35 34 32 30 30 32 35 38 39 40 40
32 31 30 28 27 25 25 23 22 21 20 20 19 18 17 16 16 16 17 17 17 17 18 18 19 19 20 20 21 21 22 22 24 26 26 26 25 25 26 28 32 34 35 35 38 44 49 52 54 57 59 60 60 60 58 56 55 56 60 62 64 65 65 66 66 66 64 63 61 58 56 54 47 38 35 37 38 34 32 34 38 41 43 43 43
32 31 30 28 27 26 25 24 23 21 19 18 18 17 17 16 15 15 15 16 16 15 15 15 15 15 16 16 17 19 19 20 22 24 25 26 28 28 27 27 29 31 32 31 31 34 39 42 45 50 55 57 58 59 60 59 58 57 57 58 59 62 64 65 66 67 66 65 63 60 60 60 54 47 45 46 44 39 36 37 40 42 44 44 45
29 28 26 25 24 24 24 23 23 21 20 18 17 17 17 16 16 15 14 14 14 14 14 14 14 14 15 15 16 17 18 18 19 20 22 25 31 34 33 30 27 24 24 25 26 28 31 34 36 41 47 53 56 58 61 62 62 61 59 57 56 59 62 66 68 69 69 66 61 57 57 58 59 60 59 54 46 41 39 39 39 41 43 44 46
26 25 24 23 23 22 22 22 21 20 19 18 17 17 16 16 16 15 14 13 13 13 13 14 14 14 15 15 15 16 17 17 17 17 18 19 23 27 28 27 26 23 21 20 21 23 26 30 32 35 42 49 55 60 62 64 65 66 65 63 60 59 61 66 70 71 70 67 62 59 57 58 61 64 63 57 51 47 43 40 40 43 46 48 50
25 24 23 23 23 22 21 20 19 19 18 17 17 16 16 16 15 15 15 15 13 13 12 12 13 14 14 14 15 15 17 18 18 18 18 19 20 22 23 22 22 23 22 21 20 21 24 28 32 36 41 47 53 58 60 61 62 62 62 62 62 61 61 64 68 71 71 70 68 65 62 60 59 61 61 57 54 50 44 41 42 46 49 53 55
25 23 22 22 21 21 20 19 18 18 17 17 17 18 17 17 17 17 16 16 16 15 14 13 12 13 13 13 15 15 17 19 20 21 24 27 27 25 24 23 22 22 24 26 26 27 28 31 34 38 41 45 49 51 52 51 51 52 53 54 57 59 59 60 63 66 69 71 72 71 68 63 60 58 58 55 53 50 47 47 50 53 57 61 62
24 24 23 22 22 21 21 21 21 21 20 19 19 18 18 18 19 18 18 18 19 18 18 16 14 13 12 13 14 14 15 16 18 19 23 28 29 28 27 26 25 25 27 30 32 33 33 35 36 38 40 42 44 44 44 44 45 47 50 52 53 54 55 55 57 60 63 67 71 72 69 65 60 58 58 57 55 53 53 55 58 61 65 67 67
24 24 23 23 23 23 23 24 24 24 24 22 21 21 20 19 20 21 21 22 22 22 22 20 19 18 15 15 16 16 16 15 16 18 21 24 26 26 26 26 27 27 28 30 32 33 35 36 36 37 36 36 37 37 40 43 45 46 48 50 50 50 49 50 52 54 57 62 67 70 71 68 65 65 66 64 60 58 60 61 63 64 65 67 68
24 25 25 25 25 25 25 26 26 25 25 24 23 23 23 23 23 24 24 25 25 25 24 23 22 21 20 20 19 19 19 17 17 19 22 23 23 24 25 26 27 27 28 28 29 29 31 32 33 33 31 29 27 28 32 38 41 44 46 48 48 47 47 47 48 50 53 58 62 66 68 70 70 72 74 72 68 65 66 67 67 66 67 68 70
27 27 27 27 27 27 27 27 26 26 25 25 25 26 27 27 27 26 26 25 24 25 25 25 24 23 23 23 22 23 22 21 20 21 23 24 24 24 24 25 25 26 26 25 24 24 25 25 26 27 26 23 21 22 26 29 33 37 42 45 47 46 46 46 45 44 47 52 56 59 64 69 73 77 80 78 75 74 72 71 72 73 73 73 72
28 27 27 27 27 27 27 27 28 28 28 29 29 29 29 28 27 26 26 25 24 24 24 25 25 25 24 24 23 23 24 24 24 24 24 24 24 24 23 23 24 24 23 22 22 24 25 24 24 24 23 21 19 19 22 25 28 31 35 40 44 46 46 45 43 40 39 41 45 50 58 65 70 76 79 80 78 77 77 76 76 76 76 75 75
28 28 29 28 29 29 30 31 31 31 31 31 30 30 29 28 27 27 26 25 25 24 24 23 23 24 24 24 23 23 24 24 25 26 27 26 26 25 25 25 25 24 23 22 23 26 26 26 25 24 22 21 20 20 22 24 27 30 33 35 39 41 42 42 42 39 38 37 35 38 45 52 58 65 74 78 78 78 79 79 79 79 78 77 77
30 31 31 31 32 33 32 32 31 31 31 31 30 30 29 29 28 29 29 28 27 26 25 23 22 22 23 23 23 24 24 24 24 25 26 27 27 27 28 28 29 28 27 27 27 27 26 25 25 24 23 22 23 23 23 23 23 25 28 30 32 35 37 38 39 38 38 36 33 33 36 40 45 53 62 69 73 76 78 78 79 80 79 77 75
34 33 33 32 33 33 33 32 30 29 29 30 30 30 30 30 30 30 30 30 30 28 27 25 24 23 23 22 23 24 24 23 24 24 24 24 25 25 25 26 27 28 29 29 29 29 28 27 27 26 24 23 23 23 24 22 21 22 23 24 26 28 31 33 36 36 37 36 34 32 34 36 39 44 50 57 62 68 73 76 78 79 78 76 75
36 35 34 34 34 33 33 32 31 29 29 30 30 31 32 33 33 33 33 33 33 32 31 30 30 28 27 25 24 24 24 23 23 23 23 22 22 23 23 23 24 25 26 26 27 28 30 31 30 27 25 23 22 22 22 21 21 21 21 21 22 24 26 29 32 34 35 36 35 34 34 35 37 40 43 46 49 52 57 63 70 74 74 74 75
36 35 33 31 31 32 32 31 31 31 32 32 33 34 35 36 36 36 37 37 36 36 36 36 35 34 33 29 27 28 27 26 25 24 23 22 23 24 24 25 25 27 27 26 26 27 29 30 28 26 24 22 22 21 21 20 20 21 21 21 22 22 23 25 27 29 31 33 35 36 36 36 36 37 39 41 43 43 43 46 53 59 63 66 68
33 31 28 28 29 31 32 32 33 34 36 37 38 38 38 38 38 38 39 39 40 40 40 40 39 39 38 36 33 31 30 29 27 26 25 25 26 27 27 26 27 30 31 31 30 30 29 27 26 26 25 24 23 22 21 20 20 20 21 21 22 22 22 23 24 26 27 30 33 36 38 39 38 38 39 41 43 44 43 42 44 49 53 56 59
28 26 26 28 31 33 34 36 38 39 40 41 41 41 41 43 43 43 44 44 45 45 45 44 44 44 44 43 41 38 35 33 31 29 29 31 33 34 33 33 33 35 35 33 33 33 31 29 27 27 26 25 24 23 22 22 22 21 21 21 22 23 23 24 24 24 27 30 32 35 38 40 41 41 42 42 43 44 45 45 45 47 49 50 52
25 25 28 31 33 35 37 40 41 42 42 43 44 46 47 48 48 49 50 51 51 52 52 51 50 50 50 50 49 47 44 41 39 37 37 40 42 42 41 40 40 41 42 41 40 39 37 34 31 29 27 26 26 25 25 25 24 23 22 23 24 25 25 26 26 27 27 30 32 33 36 38 41 43 44 45 44 45 47 47 47 47 48 48 50
27 29 33 35 36 39 41 42 42 43 43 45 48 50 51 52 53 55 56 57 58 59 59 59 58 57 57 57 57 55 53 52 51 50 50 51 51 50 47 45 45 46 47 47 46 45 42 39 36 34 32 30 29 29 29 29 28 26 25 25 27 28 27 28 28 29 29 29 30 32 33 35 37 41 44 45 45 46 46 47 48 50 50 50 51
29 33 36 37 39 41 43 42 42 44 46 48 52 54 56 57 59 59 60 61 62 63 64 65 65 65 64 63 63 63 63 62 62 61 60 61 60 58 54 51 49 48 49 48 48 47 45 43 40 39 37 36 35 34 33 32 32 31 29 29 30 30 29 29 29 29 29 30 29 30 31 32 34 37 41 44 46 46 46 47 48 50 51 52 52